N7013T KPDK-KFLL

Flight info

Callsign N7013T
Flight time 1h 21m
Altitude 39000
Route SOONE NOKIE ROKKT CUUDA3
Aircraft C750/M-SBDE3FGHRWXY/S

Departure

Time 2026-04-23 14:20
Airport DeKalb Peachtree Airport (KPDK)

Arrival

Time 2026-04-23 15:41
Airport Fort Lauderdale Hollywood International Airport (KFLL)
Time Latitude Longitude Altitude Speed Heading
2026-04-23 13:42 33.88095 -84.30194 993 ft 0 kts 89°
2026-04-23 14:13 33.88095 -84.30191 993 ft 1 kts 89°
2026-04-23 14:13 33.88095 -84.30190 993 ft 0 kts 89°
2026-04-23 14:14 33.88091 -84.30186 993 ft 3 kts 133°
2026-04-23 14:14 33.88038 -84.30193 997 ft 11 kts 216°
2026-04-23 14:14 33.88001 -84.30181 996 ft 0 kts 124°
2026-04-23 14:15 33.87989 -84.30168 997 ft 4 kts 145°
2026-04-23 14:15 33.87942 -84.30177 999 ft 17 kts 199°
2026-04-23 14:15 33.87784 -84.30250 996 ft 30 kts 201°
2026-04-23 14:15 33.87571 -84.30343 999 ft 35 kts 200°
2026-04-23 14:16 33.87355 -84.30440 1002 ft 31 kts 200°
2026-04-23 14:16 33.87157 -84.30528 999 ft 30 kts 200°
2026-04-23 14:16 33.86984 -84.30607 998 ft 15 kts 201°
2026-04-23 14:16 33.86917 -84.30557 997 ft 12 kts 109°
2026-04-23 14:17 33.86899 -84.30492 1000 ft 1 kts 115°
2026-04-23 14:18 33.86900 -84.30494 1000 ft 1 kts 115°
2026-04-23 14:18 33.86900 -84.30495 1000 ft 0 kts 115°
2026-04-23 14:18 33.86900 -84.30494 1000 ft 0 kts 115°
2026-04-23 14:19 33.86898 -84.30489 1000 ft 3 kts 115°
2026-04-23 14:19 33.86878 -84.30426 1007 ft 14 kts 95°
2026-04-23 14:19 33.87060 -84.30313 1005 ft 72 kts 21°
2026-04-23 14:19 33.87836 -84.29960 1053 ft 147 kts 20°
2026-04-23 14:20 33.88787 -84.29517 1696 ft 152 kts 20°
2026-04-23 14:20 33.89802 -84.28989 2276 ft 171 kts 21°
2026-04-23 14:20 33.90997 -84.28409 2791 ft 198 kts 23°
2026-04-23 14:20 33.92026 -84.27129 3104 ft 238 kts 64°
2026-04-23 14:21 33.92157 -84.25031 3463 ft 272 kts 103°
2026-04-23 14:21 33.91124 -84.23168 4426 ft 272 kts 142°
2026-04-23 14:21 33.89383 -84.22346 5452 ft 272 kts 172°
2026-04-23 14:21 33.87479 -84.22209 6300 ft 278 kts 180°
2026-04-23 14:22 33.85533 -84.22272 7119 ft 283 kts 184°
2026-04-23 14:22 33.83558 -84.22409 8079 ft 285 kts 184°
2026-04-23 14:22 33.81570 -84.22562 9088 ft 288 kts 184°
2026-04-23 14:22 33.79560 -84.22723 9908 ft 290 kts 184°
2026-04-23 14:23 33.77492 -84.22897 10338 ft 309 kts 184°
2026-04-23 14:23 33.75249 -84.23093 10445 ft 337 kts 184°
2026-04-23 14:23 33.72838 -84.23312 10771 ft 353 kts 185°
2026-04-23 14:23 33.70427 -84.23528 11614 ft 352 kts 185°
2026-04-23 14:24 33.67984 -84.23734 12388 ft 353 kts 184°
2026-04-23 14:24 33.65528 -84.23935 13112 ft 355 kts 184°
2026-04-23 14:24 33.63046 -84.24149 13712 ft 360 kts 184°
2026-04-23 14:24 33.60525 -84.24380 14330 ft 365 kts 184°
2026-04-23 14:25 33.57982 -84.24613 14920 ft 369 kts 184°
2026-04-23 14:25 33.55407 -84.24847 15510 ft 373 kts 184°
2026-04-23 14:25 33.52804 -84.25080 16112 ft 377 kts 185°
2026-04-23 14:25 33.50179 -84.25372 16690 ft 381 kts 186°
2026-04-23 14:26 33.47519 -84.25561 17246 ft 386 kts 181°
2026-04-23 14:26 33.44816 -84.25358 17819 ft 391 kts 174°
2026-04-23 14:26 33.42109 -84.24867 18416 ft 396 kts 171°
2026-04-23 14:26 33.39373 -84.24358 19020 ft 400 kts 173°
2026-04-23 14:27 33.36595 -84.24046 19641 ft 403 kts 176°
2026-04-23 14:27 33.33785 -84.23797 20235 ft 408 kts 175°
2026-04-23 14:27 33.30942 -84.23437 20843 ft 412 kts 174°
2026-04-23 14:27 33.28078 -84.23021 21433 ft 417 kts 174°
2026-04-23 14:28 33.25178 -84.22656 22035 ft 421 kts 175°
2026-04-23 14:28 33.22253 -84.22327 22610 ft 425 kts 175°
2026-04-23 14:28 33.19300 -84.21969 23182 ft 429 kts 174°
2026-04-23 14:28 33.16321 -84.21581 23742 ft 433 kts 174°
2026-04-23 14:29 33.13316 -84.21187 24275 ft 436 kts 173°
2026-04-23 14:29 33.10361 -84.20293 24741 ft 441 kts 160°
2026-04-23 14:29 33.07593 -84.18701 25303 ft 444 kts 148°
2026-04-23 14:29 33.05165 -84.16504 25809 ft 447 kts 137°
2026-04-23 14:30 33.03075 -84.13748 26291 ft 450 kts 129°
2026-04-23 14:30 33.01090 -84.10850 26787 ft 453 kts 129°
2026-04-23 14:30 32.99091 -84.07940 27276 ft 456 kts 129°
2026-04-23 14:30 32.97069 -84.05014 27752 ft 459 kts 129°
2026-04-23 14:31 32.95032 -84.02067 28219 ft 462 kts 129°
2026-04-23 14:31 32.92985 -83.99094 28672 ft 465 kts 129°
2026-04-23 14:31 32.90926 -83.96108 29115 ft 468 kts 129°
2026-04-23 14:31 32.88846 -83.93105 29514 ft 472 kts 129°
2026-04-23 14:32 32.86754 -83.90085 29934 ft 475 kts 129°
2026-04-23 14:32 32.84648 -83.87043 30342 ft 478 kts 129°
2026-04-23 14:32 32.82535 -83.83992 30750 ft 480 kts 129°
2026-04-23 14:32 32.80401 -83.80915 31110 ft 484 kts 129°
2026-04-23 14:33 32.78262 -83.77838 31698 ft 481 kts 129°
2026-04-23 14:33 32.76139 -83.74784 32258 ft 480 kts 129°
2026-04-23 14:33 32.74015 -83.71727 32802 ft 479 kts 129°
2026-04-23 14:33 32.71895 -83.68680 33330 ft 478 kts 129°
2026-04-23 14:34 32.69777 -83.65640 33867 ft 477 kts 129°
2026-04-23 14:34 32.67589 -83.62686 34297 ft 478 kts 136°
2026-04-23 14:34 32.64907 -83.60350 34747 ft 479 kts 148°
2026-04-23 14:34 32.61981 -83.58472 35273 ft 478 kts 153°
2026-04-23 14:35 32.59004 -83.56731 35702 ft 478 kts 153°
2026-04-23 14:35 32.56063 -83.54873 36146 ft 479 kts 149°
2026-04-23 14:35 32.53278 -83.52715 36594 ft 479 kts 144°
2026-04-23 14:35 32.50574 -83.50399 37023 ft 479 kts 143°
2026-04-23 14:36 32.47838 -83.48161 37534 ft 477 kts 146°
2026-04-23 14:36 32.45020 -83.46109 38006 ft 476 kts 148°
2026-04-23 14:36 32.42202 -83.44052 38455 ft 475 kts 146°
2026-04-23 14:36 32.39459 -83.41893 38832 ft 475 kts 145°
2026-04-23 14:37 32.36720 -83.39716 39166 ft 475 kts 146°
2026-04-23 14:37 32.33908 -83.37577 39183 ft 484 kts 147°
2026-04-23 14:37 32.28126 -83.33207 39202 ft 502 kts 146°
2026-04-23 14:38 32.22182 -83.28620 39212 ft 519 kts 146°
2026-04-23 14:38 32.16024 -83.23955 39223 ft 531 kts 146°
2026-04-23 14:39 32.09809 -83.19199 39217 ft 535 kts 146°
2026-04-23 14:39 32.03550 -83.14456 39216 ft 535 kts 147°
2026-04-23 14:40 31.97303 -83.09702 39217 ft 534 kts 147°
2026-04-23 14:40 31.91061 -83.04975 39210 ft 534 kts 147°
2026-04-23 14:41 31.84856 -83.00278 39207 ft 534 kts 147°
2026-04-23 14:41 31.78603 -82.95554 39204 ft 534 kts 147°
2026-04-23 14:42 31.72353 -82.90840 39206 ft 534 kts 147°
2026-04-23 14:42 31.66099 -82.86128 39214 ft 534 kts 147°
2026-04-23 14:43 31.59844 -82.81430 39204 ft 534 kts 147°
2026-04-23 14:43 31.53582 -82.76727 39217 ft 534 kts 147°
2026-04-23 14:44 31.47322 -82.72037 39219 ft 534 kts 147°
2026-04-23 14:44 31.41057 -82.67347 39218 ft 534 kts 147°
2026-04-23 14:45 31.34790 -82.62670 39219 ft 534 kts 147°
2026-04-23 14:45 31.28526 -82.57995 39214 ft 534 kts 148°
2026-04-23 14:46 31.22255 -82.53328 39203 ft 534 kts 148°
2026-04-23 14:46 31.15981 -82.48663 39203 ft 534 kts 148°
2026-04-23 14:47 31.09723 -82.44018 39202 ft 533 kts 148°
2026-04-23 14:47 31.03460 -82.39375 39201 ft 533 kts 148°
2026-04-23 14:48 30.97192 -82.34740 39198 ft 534 kts 148°
2026-04-23 14:48 30.90925 -82.30108 39201 ft 535 kts 148°
2026-04-23 14:49 30.84638 -82.25472 39202 ft 534 kts 148°
2026-04-23 14:49 30.78360 -82.20849 39202 ft 534 kts 148°
2026-04-23 14:50 30.72077 -82.16230 39204 ft 534 kts 148°
2026-04-23 14:50 30.65793 -82.11618 39204 ft 534 kts 148°
2026-04-23 14:51 30.59513 -82.07012 39204 ft 534 kts 148°
2026-04-23 14:51 30.53230 -82.02416 39202 ft 534 kts 149°
2026-04-23 14:52 30.46944 -81.97822 39204 ft 534 kts 149°
2026-04-23 14:52 30.40650 -81.93231 39212 ft 534 kts 149°
2026-04-23 14:53 30.34361 -81.88651 39201 ft 534 kts 149°
2026-04-23 14:53 30.28078 -81.84081 39203 ft 534 kts 149°
2026-04-23 14:54 30.21776 -81.79501 39217 ft 534 kts 149°
2026-04-23 14:54 30.15476 -81.74938 39217 ft 534 kts 149°
2026-04-23 14:55 30.09219 -81.70405 39219 ft 534 kts 149°
2026-04-23 14:55 30.02917 -81.65851 39219 ft 534 kts 149°
2026-04-23 14:56 29.96619 -81.61304 39207 ft 535 kts 149°
2026-04-23 14:56 29.90309 -81.56757 39207 ft 535 kts 149°
2026-04-23 14:57 29.83997 -81.52214 39206 ft 535 kts 149°
2026-04-23 14:57 29.77685 -81.47681 39204 ft 535 kts 149°
2026-04-23 14:58 29.71367 -81.43147 39204 ft 535 kts 150°
2026-04-23 14:58 29.65049 -81.38622 39209 ft 534 kts 150°
2026-04-23 14:59 29.58733 -81.34102 39196 ft 535 kts 150°
2026-04-23 14:59 29.52411 -81.29589 39204 ft 535 kts 150°
2026-04-23 15:00 29.46093 -81.25083 39200 ft 535 kts 150°
2026-04-23 15:00 29.39766 -81.20578 39196 ft 535 kts 150°
2026-04-23 15:01 29.33436 -81.16074 39196 ft 535 kts 150°
2026-04-23 15:01 29.28030 -81.12668 39174 ft 532 kts 160°
2026-04-23 15:02 29.21074 -81.09915 39189 ft 529 kts 165°
2026-04-23 15:02 29.14138 -81.07043 39189 ft 530 kts 162°
2026-04-23 15:03 29.07200 -81.04208 39202 ft 529 kts 165°
2026-04-23 15:03 29.00254 -81.01397 39192 ft 530 kts 163°
2026-04-23 15:04 28.93323 -80.98547 39197 ft 529 kts 164°
2026-04-23 15:04 28.86372 -80.95747 39194 ft 530 kts 164°
2026-04-23 15:05 28.79440 -80.92908 39181 ft 526 kts 163°
2026-04-23 15:05 28.72576 -80.90144 39178 ft 524 kts 164°
2026-04-23 15:06 28.65693 -80.87343 39171 ft 525 kts 163°
2026-04-23 15:06 28.58808 -80.84567 39175 ft 525 kts 164°
2026-04-23 15:07 28.51919 -80.81781 39165 ft 525 kts 164°
2026-04-23 15:07 28.45085 -80.79028 39176 ft 525 kts 164°
2026-04-23 15:08 28.38153 -80.76235 39175 ft 525 kts 164°
2026-04-23 15:09 28.27821 -80.72084 39159 ft 525 kts 164°
2026-04-23 15:09 28.20977 -80.69335 39152 ft 525 kts 164°
2026-04-23 15:10 28.14084 -80.66574 39155 ft 525 kts 165°
2026-04-23 15:10 28.07196 -80.63816 39161 ft 525 kts 165°
2026-04-23 15:11 28.00306 -80.61063 39161 ft 525 kts 165°
2026-04-23 15:11 27.93417 -80.58314 39162 ft 525 kts 165°
2026-04-23 15:12 27.86532 -80.55569 39161 ft 525 kts 165°
2026-04-23 15:12 27.79645 -80.52828 39161 ft 525 kts 165°
2026-04-23 15:12 27.76252 -80.51427 38629 ft 513 kts 162°
2026-04-23 15:13 27.73066 -80.49608 37952 ft 518 kts 153°
2026-04-23 15:13 27.70121 -80.47259 37273 ft 519 kts 144°
2026-04-23 15:13 27.67475 -80.44508 36610 ft 516 kts 139°
2026-04-23 15:13 27.64940 -80.41665 35931 ft 513 kts 139°
2026-04-23 15:14 27.62361 -80.38861 35241 ft 517 kts 141°
2026-04-23 15:14 27.59705 -80.36104 34550 ft 522 kts 141°
2026-04-23 15:14 27.57043 -80.33303 33862 ft 527 kts 140°
2026-04-23 15:14 27.54397 -80.30425 33159 ft 526 kts 140°
2026-04-23 15:15 27.51809 -80.27611 32462 ft 506 kts 140°
2026-04-23 15:15 27.49281 -80.24938 31802 ft 494 kts 141°
2026-04-23 15:15 27.46771 -80.22308 31146 ft 494 kts 141°
2026-04-23 15:15 27.44260 -80.19631 30491 ft 501 kts 140°
2026-04-23 15:16 27.41752 -80.16929 29821 ft 496 kts 140°
2026-04-23 15:16 27.39263 -80.14272 29171 ft 491 kts 140°
2026-04-23 15:16 27.36785 -80.11658 28521 ft 485 kts 140°
2026-04-23 15:16 27.34339 -80.09068 27871 ft 481 kts 140°
2026-04-23 15:17 27.31924 -80.06492 27239 ft 473 kts 139°
2026-04-23 15:17 27.29580 -80.03993 26616 ft 455 kts 140°
2026-04-23 15:17 27.27316 -80.01611 26021 ft 439 kts 141°
2026-04-23 15:17 27.24836 -79.99732 25412 ft 424 kts 158°
2026-04-23 15:18 27.22105 -79.98598 24896 ft 416 kts 166°
2026-04-23 15:18 27.19347 -79.97625 24349 ft 415 kts 167°
2026-04-23 15:18 27.16596 -79.96663 23795 ft 413 kts 166°
2026-04-23 15:18 27.13871 -79.95669 23240 ft 410 kts 165°
2026-04-23 15:19 27.11169 -79.94675 22700 ft 407 kts 166°
2026-04-23 15:19 27.08487 -79.93712 22159 ft 403 kts 166°
2026-04-23 15:19 27.05844 -79.92694 21622 ft 401 kts 162°
2026-04-23 15:19 27.03240 -79.91613 21093 ft 397 kts 164°
2026-04-23 15:20 27.00633 -79.90614 20578 ft 394 kts 165°
2026-04-23 15:20 26.98090 -79.89613 20062 ft 391 kts 163°
2026-04-23 15:20 26.95549 -79.88562 19544 ft 388 kts 163°
2026-04-23 15:20 26.93024 -79.87528 19028 ft 385 kts 164°
2026-04-23 15:21 26.90513 -79.86527 18518 ft 381 kts 164°
2026-04-23 15:21 26.88026 -79.85535 18015 ft 378 kts 164°
2026-04-23 15:21 26.85560 -79.84539 17512 ft 375 kts 163°
2026-04-23 15:21 26.83118 -79.83551 17016 ft 371 kts 163°
2026-04-23 15:22 26.80745 -79.82594 16538 ft 356 kts 163°
2026-04-23 15:22 26.78373 -79.82102 16030 ft 342 kts 184°
2026-04-23 15:22 26.76052 -79.82472 15640 ft 336 kts 195°
2026-04-23 15:22 26.73760 -79.83039 15208 ft 337 kts 194°
2026-04-23 15:23 26.71438 -79.83424 14756 ft 338 kts 187°
2026-04-23 15:23 26.69087 -79.83496 14313 ft 338 kts 182°
2026-04-23 15:23 26.66749 -79.83509 13865 ft 335 kts 184°
2026-04-23 15:23 26.64430 -79.83653 13417 ft 332 kts 186°
2026-04-23 15:24 26.62139 -79.83847 12978 ft 330 kts 186°
2026-04-23 15:24 26.59845 -79.83988 12542 ft 329 kts 184°
2026-04-23 15:24 26.57579 -79.84097 12101 ft 321 kts 184°
2026-04-23 15:24 26.55398 -79.84313 11646 ft 310 kts 193°
2026-04-23 15:25 26.53403 -79.85170 11265 ft 306 kts 205°
2026-04-23 15:25 26.51448 -79.86123 10873 ft 308 kts 204°
2026-04-23 15:25 26.49470 -79.87046 10466 ft 308 kts 203°
2026-04-23 15:25 26.47510 -79.87952 10063 ft 299 kts 203°
2026-04-23 15:26 26.45617 -79.88842 9652 ft 293 kts 203°
2026-04-23 15:26 26.43741 -79.89729 9139 ft 293 kts 203°
2026-04-23 15:26 26.41866 -79.90609 8731 ft 291 kts 202°
2026-04-23 15:26 26.40004 -79.91481 8344 ft 289 kts 202°
2026-04-23 15:27 26.38169 -79.92380 8005 ft 286 kts 207°
2026-04-23 15:27 26.36478 -79.93492 8024 ft 285 kts 210°
2026-04-23 15:27 26.34753 -79.94583 8029 ft 286 kts 208°
2026-04-23 15:27 26.33012 -79.95675 8028 ft 288 kts 209°
2026-04-23 15:28 26.31278 -79.96791 8013 ft 289 kts 210°
2026-04-23 15:28 26.29543 -79.97910 8023 ft 288 kts 210°
2026-04-23 15:28 26.27805 -79.99029 8021 ft 288 kts 210°
2026-04-23 15:28 26.26089 -80.00185 7993 ft 289 kts 217°
2026-04-23 15:29 26.24804 -80.01883 8001 ft 289 kts 237°
2026-04-23 15:29 26.23743 -80.03791 8027 ft 289 kts 237°
2026-04-23 15:29 26.22539 -80.05583 8020 ft 289 kts 230°
2026-04-23 15:29 26.21204 -80.07216 8022 ft 289 kts 227°
2026-04-23 15:30 26.19853 -80.08916 8026 ft 290 kts 230°
2026-04-23 15:30 26.18598 -80.10624 8006 ft 286 kts 231°
2026-04-23 15:30 26.17302 -80.12338 8005 ft 288 kts 229°
2026-04-23 15:30 26.15998 -80.14041 7887 ft 291 kts 230°
2026-04-23 15:31 26.15100 -80.16033 7261 ft 282 kts 258°
2026-04-23 15:31 26.14996 -80.18196 6756 ft 278 kts 271°
2026-04-23 15:31 26.15042 -80.20370 6281 ft 280 kts 271°
2026-04-23 15:31 26.15064 -80.22530 5799 ft 279 kts 270°
2026-04-23 15:32 26.15058 -80.24682 5305 ft 278 kts 270°
2026-04-23 15:32 26.15062 -80.26840 4823 ft 278 kts 270°
2026-04-23 15:32 26.15073 -80.28989 4316 ft 277 kts 270°
2026-04-23 15:32 26.15084 -80.31135 3990 ft 277 kts 270°
2026-04-23 15:33 26.15082 -80.33210 3983 ft 256 kts 270°
2026-04-23 15:33 26.15094 -80.35105 3984 ft 235 kts 270°
2026-04-23 15:33 26.15109 -80.36858 3976 ft 217 kts 270°
2026-04-23 15:33 26.15115 -80.38480 3989 ft 209 kts 269°
2026-04-23 15:34 26.15113 -80.40113 3989 ft 212 kts 270°
2026-04-23 15:34 26.14969 -80.41744 3932 ft 213 kts 248°
2026-04-23 15:34 26.14024 -80.42948 3574 ft 205 kts 203°
2026-04-23 15:34 26.12679 -80.43235 3737 ft 195 kts 181°
2026-04-23 15:35 26.11328 -80.43372 4016 ft 183 kts 182°
2026-04-23 15:35 26.10067 -80.43483 3998 ft 181 kts 175°
2026-04-23 15:35 26.08993 -80.42896 3982 ft 172 kts 135°
2026-04-23 15:35 26.08291 -80.41834 3974 ft 170 kts 110°
2026-04-23 15:36 26.07949 -80.40574 4011 ft 170 kts 102°
2026-04-23 15:36 26.07861 -80.39263 3961 ft 172 kts 91°
2026-04-23 15:36 26.07840 -80.37939 3747 ft 170 kts 91°
2026-04-23 15:36 26.07831 -80.36635 3518 ft 168 kts 91°
2026-04-23 15:37 26.07822 -80.35345 3300 ft 164 kts 91°
2026-04-23 15:37 26.07814 -80.34059 3080 ft 163 kts 91°
2026-04-23 15:37 26.07810 -80.33261 2928 ft 151 kts 91°
2026-04-23 15:37 26.07804 -80.31684 2670 ft 153 kts 90°
2026-04-23 15:38 26.07790 -80.30491 2461 ft 155 kts 90°
2026-04-23 15:38 26.07782 -80.29286 2256 ft 157 kts 89°
2026-04-23 15:38 26.07774 -80.28071 2049 ft 158 kts 89°
2026-04-23 15:38 26.07767 -80.26846 1839 ft 159 kts 88°
2026-04-23 15:39 26.07761 -80.25611 1625 ft 160 kts 88°
2026-04-23 15:39 26.07751 -80.24445 1415 ft 139 kts 88°
2026-04-23 15:39 26.07744 -80.23400 1231 ft 133 kts 88°
2026-04-23 15:39 26.07739 -80.22382 1061 ft 129 kts 89°
2026-04-23 15:40 26.07727 -80.21415 902 ft 123 kts 91°
2026-04-23 15:40 26.07721 -80.20485 736 ft 119 kts 91°
2026-04-23 15:40 26.07714 -80.19553 581 ft 122 kts 91°
2026-04-23 15:40 26.07705 -80.18607 413 ft 123 kts 91°
2026-04-23 15:41 26.07705 -80.17659 255 ft 122 kts 91°
2026-04-23 15:41 26.07704 -80.16732 74 ft 119 kts 92°
2026-04-23 15:41 26.07691 -80.15872 20 ft 91 kts 90°
2026-04-23 15:41 26.07689 -80.15376 14 ft 45 kts 90°
2026-04-23 15:42 26.07667 -80.15132 13 ft 18 kts 146°
2026-04-23 15:42 26.07586 -80.15125 14 ft 10 kts 178°
2026-04-23 15:42 26.07507 -80.15133 15 ft 12 kts 215°
2026-04-23 15:42 26.07489 -80.15215 14 ft 12 kts 271°
2026-04-23 15:43 26.07488 -80.15342 12 ft 22 kts 271°
2026-04-23 15:43 26.07492 -80.15534 15 ft 26 kts 269°
2026-04-23 15:43 26.07486 -80.15685 16 ft 12 kts 244°
2026-04-23 15:43 26.07419 -80.15698 16 ft 9 kts 142°
2026-04-23 15:44 26.07371 -80.15640 16 ft 14 kts 133°
2026-04-23 15:44 26.07296 -80.15566 15 ft 12 kts 154°
2026-04-23 15:44 26.07252 -80.15592 16 ft 5 kts 206°
2026-04-23 15:44 26.07236 -80.15581 16 ft 0 kts 130°